START_TIME,STEP,MOV.,P11,t_acc.,P23,t_acc.,P27,t_acc.,A4,t_acc.
1979-07-22 12:00:22.730 ,3,0,1.,4.8,0.,4.8,0.,4.8,0.,4.8
1979-07-22 12:00:27.530 ,3,0,0.,4.8,0.,4.8,0.,4.8,0.,4.8
1979-07-22 12:00:32.330 ,3,0,1.,4.8,0.,4.8,0.,4.8,0.,4.8
1979-07-22 12:00:37.130 ,3,0,0.,4.8,0.,4.8,0.,4.8,0.,4.8
1979-07-22 12:00:41.930 ,3,0,0.,4.8,0.,4.8,0.,4.8,0.,4.8
1979-07-22 12:00:46.730 ,2,0,0.,4.8,0.,4.8,0.,4.8,0.,4.8
1979-07-22 12:00:51.530 ,2,0,0.,4.8,0.,4.8,1.,4.8,0.,4.8
1979-07-22 12:00:56.330 ,2,0,2.,4.8,0.,4.8,0.,4.8,0.,4.8
1979-07-22 12:01:01.130 ,2,0,0.,4.8,0.,4.8,0.,4.8,0.,4.8
1979-07-22 12:01:05.930 ,2,0,0.,4.8,0.,4.8,0.,4.8,0.,4.8
1979-07-22 12:01:10.730 ,2,0,0.,4.8,0.,4.8,0.,4.8,0.,4.8
1979-07-22 12:01:15.530 ,2,0,0.,4.8,0.,4.8,1.,4.8,0.,4.8
1979-07-22 12:01:20.330 ,2,0,1.,4.8,0.,4.8,1.,4.8,0.,4.8
1979-07-22 12:01:25.130 ,2,0,0.,4.8,0.,4.8,0.,4.8,0.,4.8
1979-07-22 12:01:29.930 ,2,0,0.,4.8,0.,4.8,0.,4.8,0.,4.8
1979-07-22 12:01:34.730 ,1,0,1.,4.8,0.,4.8,0.,4.8,0.,4.8
1979-07-22 12:01:39.530 ,1,0,1.,4.8,0.,4.8,0.,4.8,0.,4.8
1979-07-22 12:01:44.330 ,1,0,0.,4.8,0.,4.8,0.,4.8,0.,4.8
1979-07-22 12:01:49.130 ,1,0,0.,4.8,0.,4.8,0.,4.8,0.,4.8
1979-07-22 12:01:53.930 ,1,0,1.,4.8,0.,4.8,0.,4.8,0.,4.8
1979-07-22 12:01:58.730 ,1,0,0.,4.8,0.,4.8,0.,4.8,0.,4.8
1979-07-22 12:02:03.530 ,1,0,0.,4.8,0.,4.8,1.,4.8,0.,4.8
1979-07-22 12:02:08.330 ,1,0,0.,4.8,0.,4.8,1.,4.8,0.,4.8
1979-07-22 12:02:13.130 ,1,0,0.,4.8,0.,4.8,0.,4.8,0.,4.8
1979-07-22 12:02:17.930 ,1,0,2.,4.8,0.,4.8,0.,4.8,0.,4.8
1979-07-22 12:02:22.730 ,0,0,0.,4.8,0.,4.8,0.,4.8,0.,4.8
1979-07-22 12:02:27.530 ,0,0,1.,4.8,0.,4.8,0.,4.8,1.,4.8
1979-07-22 12:02:32.330 ,0,0,0.,4.8,0.,4.8,0.,4.8,0.,4.8
1979-07-22 12:02:37.130 ,0,0,0.,4.8,0.,4.8,0.,4.8,0.,4.8
1979-07-22 12:02:41.930 ,0,0,0.,4.8,0.,4.8,0.,4.8,1.,4.8
1979-07-22 12:02:46.730 ,0,0,0.,4.8,0.,4.8,0.,4.8,0.,4.8
1979-07-22 12:02:51.530 ,0,0,2.,4.8,0.,4.8,0.,4.8,0.,4.8
1979-07-22 12:02:56.330 ,0,0,0.,4.8,0.,4.8,0.,4.8,0.,4.8
1979-07-22 12:03:01.130 ,0,0,0.,4.8,0.,4.8,0.,4.8,0.,4.8
1979-07-22 12:03:05.930 ,0,0,0.,4.8,0.,4.8,0.,4.8,0.,4.8
1979-07-22 12:03:10.730 ,0,0,1.,4.8,0.,4.8,0.,4.8,1.,4.8
1979-07-22 12:03:15.530 ,0,0,0.,4.8,0.,4.8,0.,4.8,0.,4.8
1979-07-22 12:03:20.330 ,0,0,0.,4.8,0.,4.8,0.,4.8,0.,4.8
1979-07-22 12:03:25.130 ,0,0,0.,4.8,0.,4.8,0.,4.8,0.,4.8
1979-07-22 12:03:29.930 ,0,0,0.,4.8,0.,4.8,0.,4.8,2.,4.8
1979-07-22 12:03:34.730 ,0,0,0.,4.8,0.,4.8,0.,4.8,0.,4.8
1979-07-22 12:03:39.530 ,0,0,0.,4.8,0.,4.8,0.,4.8,0.,4.8
1979-07-22 12:03:44.330 ,0,0,0.,4.8,0.,4.8,0.,4.8,0.,4.8
1979-07-22 12:03:49.130 ,0,0,1.,4.8,0.,4.8,0.,4.8,0.,4.8
1979-07-22 12:03:53.930 ,0,0,0.,4.8,0.,4.8,0.,4.8,0.,4.8
1979-07-22 12:03:58.730 ,1,0,0.,4.8,0.,4.8,0.,4.8,0.,4.8
1979-07-22 12:04:03.530 ,1,0,0.,4.8,0.,4.8,0.,4.8,0.,4.8
1979-07-22 12:04:08.330 ,1,0,0.,4.8,0.,4.8,0.,4.8,0.,4.8
1979-07-22 12:04:13.130 ,1,0,0.,4.8,0.,4.8,0.,4.8,0.,4.8
1979-07-22 12:04:17.930 ,1,0,0.,4.8,0.,4.8,0.,4.8,0.,4.8
1979-07-22 12:04:22.730 ,1,0,1.,4.8,0.,4.8,0.,4.8,0.,4.8
1979-07-22 12:04:27.530 ,1,0,2.,4.8,1.,4.8,0.,4.8,0.,4.8
1979-07-22 12:04:32.330 ,1,0,1.,4.8,0.,4.8,0.,4.8,1.,4.8
1979-07-22 12:04:37.130 ,1,0,0.,4.8,0.,4.8,0.,4.8,0.,4.8
1979-07-22 12:04:41.930 ,1,0,0.,4.8,0.,4.8,0.,4.8,0.,4.8
1979-07-22 12:04:46.730 ,2,0,0.,4.8,0.,4.8,0.,4.8,1.,4.8
1979-07-22 12:04:51.530 ,2,0,0.,4.8,0.,4.8,0.,4.8,0.,4.8
1979-07-22 12:04:56.330 ,2,0,1.,4.8,0.,4.8,0.,4.8,0.,4.8
1979-07-22 12:05:01.130 ,2,0,0.,4.8,0.,4.8,0.,4.8,0.,4.8
1979-07-22 12:05:05.930 ,2,0,0.,4.8,0.,4.8,0.,4.8,0.,4.8
1979-07-22 12:05:10.730 ,2,0,0.,4.8,0.,4.8,0.,4.8,0.,4.8
1979-07-22 12:05:15.530 ,2,0,1.,4.8,0.,4.8,0.,4.8,0.,4.8
1979-07-22 12:05:20.330 ,2,0,0.,4.8,0.,4.8,0.,4.8,0.,4.8
1979-07-22 12:05:25.130 ,2,0,1.,4.8,0.,4.8,0.,4.8,0.,4.8
1979-07-22 12:05:29.930 ,2,0,0.,4.8,0.,4.8,0.,4.8,0.,4.8
1979-07-22 12:05:34.730 ,3,0,0.,4.8,0.,4.8,0.,4.8,0.,4.8
1979-07-22 12:05:39.530 ,3,0,1.,4.8,0.,4.8,0.,4.8,0.,4.8
1979-07-22 12:05:44.330 ,3,0,2.,4.8,0.,4.8,0.,4.8,0.,4.8
1979-07-22 12:05:49.130 ,3,0,0.,4.8,0.,4.8,1.,4.8,1.,4.8
1979-07-22 12:05:53.930 ,3,0,1.,4.8,0.,4.8,0.,4.8,0.,4.8
1979-07-22 12:05:58.730 ,3,0,1.,4.8,0.,4.8,0.,4.8,0.,4.8
1979-07-22 12:06:03.530 ,3,0,0.,4.8,0.,4.8,1.,4.8,0.,4.8
1979-07-22 12:06:08.330 ,3,0,0.,4.8,0.,4.8,0.,4.8,0.,4.8
1979-07-22 12:06:13.130 ,3,0,0.,4.8,0.,4.8,2.,4.8,0.,4.8
1979-07-22 12:06:17.930 ,3,0,0.,4.8,0.,4.8,0.,4.8,0.,4.8
1979-07-22 12:06:22.730 ,4,0,0.,4.8,0.,4.8,0.,4.8,0.,4.8
1979-07-22 12:06:27.530 ,4,0,0.,4.8,0.,4.8,0.,4.8,0.,4.8
1979-07-22 12:06:32.330 ,4,0,0.,4.8,0.,4.8,1.,4.8,0.,4.8
1979-07-22 12:06:37.130 ,4,0,2.,4.8,0.,4.8,0.,4.8,0.,4.8
1979-07-22 12:06:41.930 ,4,0,0.,4.8,0.,4.8,0.,4.8,0.,4.8
1979-07-22 12:06:46.730 ,4,0,0.,4.8,0.,4.8,0.,4.8,0.,4.8
1979-07-22 12:06:51.530 ,4,0,0.,4.8,0.,4.8,0.,4.8,0.,4.8
1979-07-22 12:06:56.330 ,4,0,0.,4.8,0.,4.8,0.,4.8,0.,4.8
1979-07-22 12:07:01.130 ,4,0,0.,4.8,0.,4.8,0.,4.8,0.,4.8
1979-07-22 12:07:05.930 ,4,0,0.,4.8,0.,4.8,0.,4.8,0.,4.8
1979-07-22 12:06:46.730 ,4,0,0.,4.8,0.,4.8,0.,4.8,0.,4.8
1979-07-22 12:06:51.530 ,4,0,0.,4.8,0.,4.8,0.,4.8,0.,4.8
1979-07-22 12:06:56.330 ,4,0,0.,4.8,0.,4.8,0.,4.8,0.,4.8
1979-07-22 12:07:01.130 ,4,0,0.,4.8,0.,4.8,0.,4.8,0.,4.8
1979-07-22 12:07:05.930 ,4,0,0.,4.8,0.,4.8,0.,4.8,0.,4.8
1979-07-22 12:07:10.730 ,5,0,0.,4.8,0.,4.8,0.,4.8,0.,4.8
1979-07-22 12:07:15.530 ,5,0,1.,4.8,0.,4.8,0.,4.8,0.,4.8
1979-07-22 12:07:20.330 ,5,0,0.,4.8,0.,4.8,0.,4.8,0.,4.8
1979-07-22 12:07:25.130 ,5,0,0.,4.8,0.,4.8,0.,4.8,0.,4.8
1979-07-22 12:07:29.930 ,5,0,1.,4.8,0.,4.8,1.,4.8,0.,4.8
1979-07-22 12:07:34.730 ,5,0,1.,4.8,0.,4.8,0.,4.8,0.,4.8
1979-07-22 12:07:39.530 ,5,0,0.,4.8,0.,4.8,0.,4.8,0.,4.8
1979-07-22 12:07:44.330 ,5,0,1.,4.8,0.,4.8,0.,4.8,0.,4.8
1979-07-22 12:07:49.130 ,5,0,0.,4.8,0.,4.8,0.,4.8,0.,4.8
1979-07-22 12:07:53.930 ,5,0,1.,4.8,0.,4.8,0.,4.8,0.,4.8
1979-07-22 12:07:58.730 ,6,0,0.,4.8,0.,4.8,0.,4.8,0.,4.8
1979-07-22 12:08:03.530 ,6,0,0.,4.8,0.,4.8,0.,4.8,0.,4.8
1979-07-22 12:08:08.330 ,6,0,0.,4.8,0.,4.8,0.,4.8,0.,4.8
1979-07-22 12:08:13.130 ,6,0,1.,4.8,0.,4.8,0.,4.8,0.,4.8
1979-07-22 12:08:17.930 ,6,0,3.,4.8,0.,4.8,0.,4.8,0.,4.8
1979-07-22 12:08:22.730 ,6,0,0.,4.8,0.,4.8,0.,4.8,0.,4.8
1979-07-22 12:08:27.530 ,6,0,0.,4.8,1.,4.8,0.,4.8,0.,4.8
1979-07-22 12:08:32.330 ,6,0,0.,4.8,0.,4.8,0.,4.8,0.,4.8
1979-07-22 12:08:37.130 ,6,0,1.,4.8,0.,4.8,0.,4.8,0.,4.8
1979-07-22 12:08:41.930 ,6,0,1.,4.8,0.,4.8,0.,4.8,0.,4.8
1979-07-22 12:09:34.730 ,0,0,0.,4.8,0.,4.8,0.,4.8,0.,4.8
1979-07-22 12:09:39.530 ,0,0,0.,4.8,0.,4.8,1.,4.8,0.,4.8
1979-07-22 12:09:44.330 ,0,0,0.,4.8,0.,4.8,0.,4.8,0.,4.8
1979-07-22 12:09:49.130 ,0,0,0.,4.8,0.,4.8,0.,4.8,0.,4.8
1979-07-22 12:09:53.930 ,0,0,1.,4.8,0.,4.8,0.,4.8,0.,4.8
1979-07-22 12:09:58.730 ,0,0,0.,4.8,0.,4.8,0.,4.8,0.,4.8
1979-07-22 12:10:03.530 ,0,0,0.,4.8,0.,4.8,0.,4.8,0.,4.8
1979-07-22 12:10:08.330 ,0,0,2.,4.8,0.,4.8,0.,4.8,0.,4.8
1979-07-22 12:10:13.130 ,0,0,0.,4.8,0.,4.8,0.,4.8,0.,4.8
1979-07-22 12:10:17.930 ,0,0,1.,4.8,0.,4.8,0.,4.8,0.,4.8
1979-07-22 12:10:22.730 ,6,0,0.,4.8,0.,4.8,0.,4.8,0.,4.8
1979-07-22 12:10:27.530 ,6,0,0.,4.8,0.,4.8,1.,4.8,0.,4.8
1979-07-22 12:10:32.330 ,6,0,0.,4.8,0.,4.8,0.,4.8,0.,4.8
1979-07-22 12:10:37.130 ,6,0,0.,4.8,0.,4.8,0.,4.8,0.,4.8
1979-07-22 12:10:41.930 ,6,0,0.,4.8,0.,4.8,0.,4.8,0.,4.8
1979-07-22 12:10:46.730 ,6,0,1.,4.8,0.,4.8,0.,4.8,0.,4.8
1979-07-22 12:10:51.530 ,6,0,0.,4.8,0.,4.8,0.,4.8,0.,4.8
1979-07-22 12:10:56.330 ,6,0,0.,4.8,0.,4.8,0.,4.8,0.,4.8
1979-07-22 12:11:01.130 ,6,0,0.,4.8,0.,4.8,2.,4.8,0.,4.8
1979-07-22 12:11:05.930 ,6,0,1.,4.8,0.,4.8,0.,4.8,0.,4.8
1979-07-22 12:11:10.730 ,5,0,0.,4.8,0.,4.8,0.,4.8,0.,4.8
1979-07-22 12:11:15.530 ,5,0,0.,4.8,0.,4.8,0.,4.8,0.,4.8
1979-07-22 12:11:20.330 ,5,0,0.,4.8,0.,4.8,0.,4.8,0.,4.8
1979-07-22 12:11:25.130 ,5,0,0.,4.8,0.,4.8,0.,4.8,0.,4.8
1979-07-22 12:11:29.930 ,5,0,1.,4.8,0.,4.8,0.,4.8,0.,4.8
1979-07-22 12:11:34.730 ,5,0,1.,4.8,0.,4.8,0.,4.8,0.,4.8
1979-07-22 12:11:39.530 ,5,0,0.,4.8,0.,4.8,0.,4.8,0.,4.8
1979-07-22 12:11:44.330 ,5,0,0.,4.8,0.,4.8,0.,4.8,0.,4.8
1979-07-22 12:11:49.130 ,5,0,0.,4.8,0.,4.8,0.,4.8,0.,4.8
1979-07-22 12:11:53.930 ,5,0,0.,4.8,0.,4.8,0.,4.8,0.,4.8
1979-07-22 12:11:58.730 ,4,0,0.,4.8,0.,4.8,1.,4.8,0.,4.8
1979-07-22 12:12:03.530 ,4,0,1.,4.8,0.,4.8,0.,4.8,0.,4.8
1979-07-22 12:12:08.330 ,4,0,0.,4.8,0.,4.8,0.,4.8,0.,4.8
1979-07-22 12:12:13.130 ,4,0,0.,4.8,0.,4.8,0.,4.8,0.,4.8
1979-07-22 12:12:17.930 ,4,0,0.,4.8,0.,4.8,0.,4.8,0.,4.8
1979-07-22 12:12:22.730 ,4,0,3.,4.8,0.,4.8,0.,4.8,1.,4.8
1979-07-22 12:12:27.530 ,4,0,1.,4.8,0.,4.8,0.,4.8,0.,4.8
1979-07-22 12:12:32.330 ,4,0,1.,4.8,0.,4.8,1.,4.8,0.,4.8
1979-07-22 12:12:37.130 ,4,0,0.,4.8,1.,4.8,0.,4.8,0.,4.8
1979-07-22 12:12:41.930 ,4,0,0.,4.8,0.,4.8,1.,4.8,0.,4.8
1979-07-22 12:12:46.730 ,3,0,1.,4.8,0.,4.8,0.,4.8,0.,4.8
1979-07-22 12:12:51.530 ,3,0,0.,4.8,0.,4.8,0.,4.8,0.,4.8
1979-07-22 12:12:56.330 ,3,0,0.,4.8,0.,4.8,0.,4.8,0.,4.8
1979-07-22 12:13:01.130 ,3,0,1.,4.8,0.,4.8,0.,4.8,0.,4.8
1979-07-22 12:13:05.930 ,3,0,0.,4.8,0.,4.8,1.,4.8,0.,4.8
1979-07-22 12:13:10.730 ,3,0,1.,4.8,0.,4.8,0.,4.8,0.,4.8
1979-07-22 12:13:15.530 ,3,0,0.,4.8,0.,4.8,0.,4.8,0.,4.8
1979-07-22 12:13:20.330 ,3,0,0.,4.8,0.,4.8,0.,4.8,0.,4.8
1979-07-22 12:13:25.130 ,3,0,1.,4.8,0.,4.8,0.,4.8,0.,4.8
1979-07-22 12:13:29.930 ,3,0,0.,4.8,0.,4.8,0.,4.8,0.,4.8
1979-07-22 12:13:34.730 ,2,0,0.,4.8,0.,4.8,0.,4.8,0.,4.8
1979-07-22 12:13:39.530 ,2,0,0.,4.8,0.,4.8,0.,4.8,0.,4.8
1979-07-22 12:13:44.330 ,2,0,0.,4.8,0.,4.8,0.,4.8,1.,4.8
1979-07-22 12:13:49.130 ,2,0,0.,4.8,0.,4.8,1.,4.8,0.,4.8
1979-07-22 12:13:53.930 ,2,0,0.,4.8,0.,4.8,0.,4.8,0.,4.8
1979-07-22 12:13:58.730 ,2,0,0.,4.8,0.,4.8,0.,4.8,0.,4.8
1979-07-22 12:14:03.530 ,2,0,0.,4.8,0.,4.8,0.,4.8,0.,4.8
1979-07-22 12:14:08.330 ,2,0,0.,4.8,0.,4.8,0.,4.8,0.,4.8
1979-07-22 12:14:13.130 ,2,0,0.,4.8,0.,4.8,1.,4.8,0.,4.8
1979-07-22 12:14:17.930 ,2,0,1.,4.8,0.,4.8,0.,4.8,0.,4.8
1979-07-22 12:14:22.730 ,1,0,0.,4.8,0.,4.8,0.,4.8,0.,4.8
1979-07-22 12:14:27.530 ,1,0,0.,4.8,0.,4.8,0.,4.8,1.,4.8
1979-07-22 12:14:32.330 ,1,0,,0,,0,,0,,0
1979-07-22 12:14:37.130 ,1,0,2.,4.8,0.,4.8,1.,4.8,0.,4.8
1979-07-22 12:14:41.930 ,1,0,0.,4.8,0.,4.8,0.,4.8,0.,4.8
1979-07-22 12:14:46.730 ,1,0,1.,4.8,0.,4.8,0.,4.8,0.,4.8
1979-07-22 12:14:51.530 ,1,0,0.,4.8,0.,4.8,0.,4.8,0.,4.8
1979-07-22 12:14:56.330 ,1,0,0.,4.8,0.,4.8,0.,4.8,0.,4.8
1979-07-22 12:15:01.130 ,1,0,0.,4.8,0.,4.8,0.,4.8,0.,4.8
1979-07-22 12:15:05.930 ,1,0,0.,4.8,0.,4.8,0.,4.8,1.,4.8
1979-07-22 12:15:10.730 ,0,0,0.,4.8,0.,4.8,0.,4.8,0.,4.8
1979-07-22 12:15:15.530 ,0,0,0.,4.8,0.,4.8,0.,4.8,0.,4.8
1979-07-22 12:15:20.330 ,0,0,1.,4.8,0.,4.8,0.,4.8,0.,4.8
1979-07-22 12:15:25.130 ,0,0,0.,4.8,0.,4.8,0.,4.8,0.,4.8
1979-07-22 12:15:29.930 ,0,0,0.,4.8,0.,4.8,0.,4.8,0.,4.8
1979-07-22 12:15:34.730 ,0,0,0.,4.8,0.,4.8,0.,4.8,0.,4.8
1979-07-22 12:15:39.530 ,0,0,0.,4.8,0.,4.8,0.,4.8,0.,4.8
1979-07-22 12:15:44.330 ,0,0,1.,4.8,0.,4.8,0.,4.8,0.,4.8
1979-07-22 12:15:49.130 ,0,0,0.,4.8,1.,4.8,0.,4.8,0.,4.8
1979-07-22 12:15:53.930 ,0,0,1.,4.8,0.,4.8,1.,4.8,0.,4.8
1979-07-22 12:15:58.730 ,0,0,0.,4.8,0.,4.8,0.,4.8,0.,4.8
1979-07-22 12:16:03.530 ,0,0,0.,4.8,0.,4.8,0.,4.8,0.,4.8
1979-07-22 12:16:08.330 ,0,0,0.,4.8,0.,4.8,0.,4.8,0.,4.8
1979-07-22 12:16:13.130 ,0,0,1.,4.8,0.,4.8,0.,4.8,0.,4.8
1979-07-22 12:16:17.930 ,0,0,0.,4.8,0.,4.8,0.,4.8,0.,4.8
1979-07-22 12:16:22.730 ,0,0,0.,4.8,0.,4.8,0.,4.8,0.,4.8
1979-07-22 12:16:27.530 ,0,0,0.,4.8,0.,4.8,1.,4.8,0.,4.8
1979-07-22 12:16:32.330 ,0,0,0.,4.8,0.,4.8,0.,4.8,0.,4.8
1979-07-22 12:16:37.130 ,0,0,2.,4.8,0.,4.8,0.,4.8,0.,4.8
1979-07-22 12:16:41.930 ,0,0,0.,4.8,0.,4.8,0.,4.8,0.,4.8
1979-07-22 12:16:46.730 ,1,0,1.,4.8,0.,4.8,0.,4.8,0.,4.8
1979-07-22 12:16:51.530 ,1,0,0.,4.8,0.,4.8,1.,4.8,0.,4.8
1979-07-22 12:16:56.330 ,1,0,0.,4.8,0.,4.8,1.,4.8,0.,4.8
1979-07-22 12:17:01.130 ,1,0,0.,4.8,0.,4.8,1.,4.8,0.,4.8
1979-07-22 12:17:05.930 ,1,0,1.,4.8,0.,4.8,0.,4.8,0.,4.8
1979-07-22 12:17:10.730 ,1,0,0.,4.8,0.,4.8,0.,4.8,0.,4.8
1979-07-22 12:17:15.530 ,1,0,1.,4.8,0.,4.8,0.,4.8,0.,4.8
1979-07-22 12:17:20.330 ,1,0,0.,4.8,0.,4.8,0.,4.8,0.,4.8
1979-07-22 12:17:25.130 ,1,0,1.,4.8,0.,4.8,0.,4.8,0.,4.8
1979-07-22 12:17:29.930 ,1,0,1.,4.8,0.,4.8,0.,4.8,0.,4.8
1979-07-22 12:17:34.730 ,2,0,0.,4.8,0.,4.8,0.,4.8,0.,4.8
1979-07-22 12:17:39.530 ,2,0,0.,4.8,0.,4.8,0.,4.8,0.,4.8
1979-07-22 12:17:44.330 ,2,0,0.,4.8,0.,4.8,0.,4.8,0.,4.8
1979-07-22 12:17:49.130 ,2,0,0.,4.8,0.,4.8,0.,4.8,0.,4.8
1979-07-22 12:17:53.930 ,2,0,0.,4.8,0.,4.8,0.,4.8,0.,4.8
1979-07-22 12:17:58.730 ,2,0,1.,4.8,0.,4.8,0.,4.8,0.,4.8
1979-07-22 12:18:03.530 ,2,0,0.,4.8,0.,4.8,0.,4.8,0.,4.8
1979-07-22 12:18:08.330 ,2,0,0.,4.8,0.,4.8,0.,4.8,0.,4.8
1979-07-22 12:18:13.130 ,2,0,0.,4.8,0.,4.8,0.,4.8,0.,4.8
1979-07-22 12:18:17.930 ,2,0,0.,4.8,0.,4.8,0.,4.8,0.,4.8
1979-07-22 12:18:22.730 ,3,0,1.,4.8,0.,4.8,0.,4.8,0.,4.8
1979-07-22 12:18:27.530 ,3,0,0.,4.8,0.,4.8,0.,4.8,0.,4.8
1979-07-22 12:18:32.330 ,3,0,0.,4.8,0.,4.8,0.,4.8,0.,4.8
1979-07-22 12:18:37.130 ,3,0,0.,4.8,0.,4.8,0.,4.8,0.,4.8
1979-07-22 12:18:41.930 ,3,0,1.,4.8,0.,4.8,0.,4.8,0.,4.8
1979-07-22 12:18:46.730 ,3,0,0.,4.8,0.,4.8,0.,4.8,0.,4.8
1979-07-22 12:18:51.530 ,3,0,0.,4.8,0.,4.8,0.,4.8,0.,4.8
1979-07-22 12:18:56.330 ,3,0,0.,4.8,1.,4.8,0.,4.8,0.,4.8
1979-07-22 12:19:01.130 ,3,0,0.,4.8,0.,4.8,0.,4.8,0.,4.8
1979-07-22 12:19:05.930 ,3,0,0.,4.8,0.,4.8,0.,4.8,1.,4.8
1979-07-22 12:19:10.730 ,4,0,1.,4.8,0.,4.8,0.,4.8,0.,4.8
1979-07-22 12:19:15.530 ,4,0,0.,4.8,0.,4.8,0.,4.8,0.,4.8
1979-07-22 12:19:20.330 ,4,0,0.,4.8,0.,4.8,0.,4.8,0.,4.8
1979-07-22 12:19:25.130 ,4,0,0.,4.8,0.,4.8,0.,4.8,0.,4.8
1979-07-22 12:19:29.930 ,4,0,2.,4.8,0.,4.8,0.,4.8,0.,4.8
1979-07-22 12:19:34.730 ,4,0,0.,4.8,0.,4.8,0.,4.8,0.,4.8
1979-07-22 12:19:39.530 ,4,0,0.,4.8,0.,4.8,1.,4.8,0.,4.8
1979-07-22 12:19:44.330 ,4,0,1.,4.8,0.,4.8,0.,4.8,0.,4.8
1979-07-22 12:19:49.130 ,4,0,0.,4.8,0.,4.8,0.,4.8,0.,4.8
1979-07-22 12:19:53.930 ,4,0,1.,4.8,0.,4.8,0.,4.8,0.,4.8
1979-07-22 12:19:58.730 ,5,0,0.,4.8,0.,4.8,0.,4.8,0.,4.8
1979-07-22 12:20:03.530 ,5,0,1.,4.8,0.,4.8,1.,4.8,0.,4.8
1979-07-22 12:20:08.330 ,5,0,0.,4.8,0.,4.8,0.,4.8,0.,4.8
1979-07-22 12:20:13.130 ,5,0,0.,4.8,0.,4.8,0.,4.8,0.,4.8
1979-07-22 12:20:17.930 ,5,0,0.,4.8,0.,4.8,0.,4.8,0.,4.8
1979-07-22 12:20:22.730 ,5,0,0.,4.8,0.,4.8,0.,4.8,1.,4.8
1979-07-22 12:20:27.530 ,5,0,0.,4.8,0.,4.8,0.,4.8,0.,4.8
1979-07-22 12:20:32.330 ,5,0,0.,4.8,0.,4.8,0.,4.8,0.,4.8
1979-07-22 12:20:37.130 ,5,0,0.,4.8,0.,4.8,0.,4.8,0.,4.8
1979-07-22 12:20:41.930 ,5,0,0.,4.8,0.,4.8,0.,4.8,0.,4.8
1979-07-22 12:20:46.730 ,6,0,0.,4.8,0.,4.8,0.,4.8,0.,4.8
1979-07-22 12:20:51.530 ,6,0,2.,4.8,0.,4.8,0.,4.8,0.,4.8
1979-07-22 12:20:56.330 ,6,0,0.,4.8,0.,4.8,0.,4.8,0.,4.8
1979-07-22 12:21:01.130 ,6,0,0.,4.8,0.,4.8,1.,4.8,0.,4.8
1979-07-22 12:21:05.930 ,6,0,0.,4.8,0.,4.8,0.,4.8,0.,4.8
1979-07-22 12:21:10.730 ,6,0,1.,4.8,0.,4.8,1.,4.8,0.,4.8
1979-07-22 12:21:15.530 ,6,0,1.,4.8,0.,4.8,0.,4.8,0.,4.8
1979-07-22 12:21:20.330 ,6,0,0.,4.8,0.,4.8,0.,4.8,0.,4.8
1979-07-22 12:21:25.130 ,6,0,1.,4.8,0.,4.8,0.,4.8,0.,4.8
1979-07-22 12:21:29.930 ,6,0,0.,4.8,0.,4.8,0.,4.8,0.,4.8
1979-07-22 12:21:34.730 ,7,0,1.,4.8,0.,4.8,0.,4.8,0.,4.8
1979-07-22 12:21:39.530 ,7,0,0.,4.8,0.,4.8,0.,4.8,0.,4.8
1979-07-22 12:21:44.330 ,7,0,1.,4.8,0.,4.8,0.,4.8,0.,4.8
1979-07-22 12:21:49.130 ,7,0,0.,4.8,0.,4.8,0.,4.8,0.,4.8
1979-07-22 12:21:53.930 ,7,0,0.,4.8,0.,4.8,0.,4.8,0.,4.8
1979-07-22 12:21:58.730 ,7,0,1.,4.8,0.,4.8,0.,4.8,0.,4.8
1979-07-22 12:22:03.530 ,7,0,0.,4.8,0.,4.8,0.,4.8,0.,4.8
1979-07-22 12:22:08.330 ,7,0,0.,4.8,0.,4.8,0.,4.8,0.,4.8
1979-07-22 12:22:13.130 ,7,0,0.,4.8,0.,4.8,0.,4.8,0.,4.8
1979-07-22 12:22:17.930 ,7,0,1.,4.8,0.,4.8,0.,4.8,0.,4.8
1979-07-22 12:22:22.730 ,7,0,0.,4.8,0.,4.8,0.,4.8,0.,4.8
1979-07-22 12:22:27.530 ,7,0,0.,4.8,0.,4.8,0.,4.8,0.,4.8
1979-07-22 12:22:32.330 ,7,0,0.,4.8,0.,4.8,0.,4.8,0.,4.8
1979-07-22 12:22:37.130 ,7,0,0.,4.8,0.,4.8,0.,4.8,0.,4.8
1979-07-22 12:22:41.930 ,7,0,0.,4.8,0.,4.8,0.,4.8,0.,4.8
1979-07-22 12:22:46.730 ,7,0,0.,4.8,0.,4.8,0.,4.8,0.,4.8
1979-07-22 12:22:51.530 ,7,0,0.,4.8,0.,4.8,0.,4.8,0.,4.8
1979-07-22 12:22:56.330 ,7,0,0.,4.8,0.,4.8,0.,4.8,0.,4.8
1979-07-22 12:23:01.130 ,7,0,1.,4.8,0.,4.8,0.,4.8,0.,4.8
1979-07-22 12:23:05.930 ,7,0,0.,4.8,0.,4.8,0.,4.8,0.,4.8
1979-07-22 12:23:10.730 ,6,0,0.,4.8,0.,4.8,0.,4.8,0.,4.8
1979-07-22 12:23:15.530 ,6,0,0.,4.8,0.,4.8,0.,4.8,0.,4.8
1979-07-22 12:23:20.330 ,6,0,0.,4.8,0.,4.8,0.,4.8,0.,4.8
1979-07-22 12:23:25.130 ,6,0,0.,4.8,0.,4.8,0.,4.8,0.,4.8
1979-07-22 12:23:29.930 ,6,0,0.,4.8,0.,4.8,0.,4.8,0.,4.8
1979-07-22 12:23:34.730 ,6,0,1.,4.8,0.,4.8,1.,4.8,0.,4.8
1979-07-22 12:23:39.530 ,6,0,0.,4.8,0.,4.8,0.,4.8,0.,4.8
1979-07-22 12:23:44.330 ,6,0,1.,4.8,0.,4.8,0.,4.8,0.,4.8
1979-07-22 12:23:49.130 ,6,0,1.,4.8,0.,4.8,0.,4.8,0.,4.8
1979-07-22 12:23:53.930 ,6,0,0.,4.8,0.,4.8,0.,4.8,0.,4.8
1979-07-22 12:23:58.730 ,5,0,0.,4.8,0.,4.8,0.,4.8,0.,4.8
1979-07-22 12:24:03.530 ,5,0,0.,4.8,0.,4.8,0.,4.8,0.,4.8
1979-07-22 12:24:08.330 ,5,0,0.,4.8,0.,4.8,0.,4.8,0.,4.8
1979-07-22 12:24:13.130 ,5,0,0.,4.8,0.,4.8,0.,4.8,0.,4.8
1979-07-22 12:24:17.930 ,5,0,1.,4.8,0.,4.8,0.,4.8,0.,4.8
1979-07-22 12:24:22.730 ,5,0,1.,4.8,0.,4.8,0.,4.8,0.,4.8
1979-07-22 12:24:27.530 ,5,0,0.,4.8,0.,4.8,1.,4.8,0.,4.8
1979-07-22 12:24:32.330 ,5,0,0.,4.8,0.,4.8,0.,4.8,0.,4.8
1979-07-22 12:24:37.130 ,5,0,0.,4.8,0.,4.8,0.,4.8,0.,4.8
1979-07-22 12:24:41.930 ,5,0,1.,4.8,0.,4.8,1.,4.8,0.,4.8
1979-07-22 12:24:46.730 ,4,0,0.,4.8,0.,4.8,0.,4.8,0.,4.8
1979-07-22 12:24:51.530 ,4,0,1.,4.8,0.,4.8,0.,4.8,0.,4.8
1979-07-22 12:24:56.330 ,4,0,0.,4.8,0.,4.8,0.,4.8,0.,4.8
1979-07-22 12:25:01.130 ,4,0,0.,4.8,0.,4.8,0.,4.8,0.,4.8
1979-07-22 12:25:05.930 ,4,0,1.,4.8,0.,4.8,0.,4.8,0.,4.8
1979-07-22 12:25:10.730 ,4,0,1.,4.8,0.,4.8,2.,4.8,0.,4.8
1979-07-22 12:25:15.530 ,4,0,0.,4.8,0.,4.8,0.,4.8,0.,4.8
1979-07-22 12:25:20.330 ,4,0,0.,4.8,0.,4.8,0.,4.8,0.,4.8
1979-07-22 12:25:25.130 ,4,0,0.,4.8,0.,4.8,0.,4.8,0.,4.8
1979-07-22 12:25:29.930 ,4,0,0.,4.8,0.,4.8,0.,4.8,0.,4.8
1979-07-22 12:25:34.730 ,3,0,0.,4.8,0.,4.8,0.,4.8,0.,4.8
1979-07-22 12:25:39.530 ,3,0,0.,4.8,0.,4.8,0.,4.8,0.,4.8
1979-07-22 12:25:44.330 ,3,0,0.,4.8,0.,4.8,0.,4.8,0.,4.8
1979-07-22 12:25:49.130 ,3,0,1.,4.8,0.,4.8,0.,4.8,0.,4.8
1979-07-22 12:25:53.930 ,3,0,0.,4.8,0.,4.8,0.,4.8,0.,4.8
1979-07-22 12:25:58.730 ,3,0,2.,4.8,0.,4.8,0.,4.8,0.,4.8
1979-07-22 12:26:03.530 ,3,0,0.,4.8,0.,4.8,0.,4.8,0.,4.8
1979-07-22 12:26:08.330 ,3,0,1.,4.8,0.,4.8,0.,4.8,0.,4.8
1979-07-22 12:26:13.130 ,3,0,0.,4.8,0.,4.8,0.,4.8,0.,4.8
1979-07-22 12:26:17.930 ,3,0,0.,4.8,0.,4.8,0.,4.8,0.,4.8
1979-07-22 12:26:22.730 ,2,0,0.,4.8,0.,4.8,0.,4.8,0.,4.8
1979-07-22 12:26:27.530 ,2,0,0.,4.8,0.,4.8,0.,4.8,0.,4.8
1979-07-22 12:26:32.330 ,2,0,1.,4.8,0.,4.8,0.,4.8,0.,4.8
1979-07-22 12:26:37.130 ,2,0,1.,4.8,0.,4.8,0.,4.8,0.,4.8
1979-07-22 12:26:41.930 ,2,0,0.,4.8,0.,4.8,0.,4.8,0.,4.8
1979-07-22 12:26:46.730 ,2,0,1.,4.8,0.,4.8,0.,4.8,0.,4.8
1979-07-22 12:26:51.530 ,2,0,0.,4.8,0.,4.8,0.,4.8,0.,4.8
1979-07-22 12:26:56.330 ,2,0,0.,4.8,0.,4.8,1.,4.8,0.,4.8
1979-07-22 12:27:01.130 ,2,0,0.,4.8,0.,4.8,0.,4.8,0.,4.8
1979-07-22 12:27:05.930 ,2,0,0.,4.8,0.,4.8,1.,4.8,0.,4.8
1979-07-22 12:27:10.730 ,1,0,1.,4.8,0.,4.8,0.,4.8,0.,4.8
1979-07-22 12:27:15.530 ,1,0,0.,4.8,0.,4.8,0.,4.8,0.,4.8
1979-07-22 12:27:20.330 ,1,0,1.,4.8,0.,4.8,0.,4.8,0.,4.8
1979-07-22 12:27:25.130 ,1,0,0.,4.8,0.,4.8,1.,4.8,0.,4.8
1979-07-22 12:27:29.930 ,1,0,0.,4.8,0.,4.8,0.,4.8,0.,4.8
1979-07-22 12:27:34.730 ,1,0,0.,4.8,0.,4.8,0.,4.8,0.,4.8
1979-07-22 12:27:39.530 ,1,0,0.,4.8,0.,4.8,0.,4.8,0.,4.8
1979-07-22 12:27:44.330 ,1,0,0.,4.8,0.,4.8,0.,4.8,0.,4.8
1979-07-22 12:27:49.130 ,1,0,0.,4.8,0.,4.8,0.,4.8,0.,4.8
1979-07-22 12:27:53.930 ,1,0,0.,4.8,0.,4.8,0.,4.8,0.,4.8
1979-07-22 12:27:58.730 ,0,0,1.,4.8,0.,4.8,0.,4.8,0.,4.8
1979-07-22 12:28:03.530 ,0,0,0.,4.8,0.,4.8,0.,4.8,0.,4.8
1979-07-22 12:28:08.330 ,0,0,0.,4.8,1.,4.8,0.,4.8,0.,4.8
1979-07-22 12:28:13.130 ,0,0,0.,4.8,0.,4.8,0.,4.8,0.,4.8
1979-07-22 12:28:17.930 ,0,0,1.,4.8,0.,4.8,0.,4.8,0.,4.8
1979-07-22 12:28:22.730 ,0,0,0.,4.8,0.,4.8,0.,4.8,0.,4.8
1979-07-22 12:28:27.530 ,0,0,0.,4.8,0.,4.8,0.,4.8,0.,4.8
1979-07-22 12:28:32.330 ,0,0,1.,4.8,0.,4.8,1.,4.8,0.,4.8
1979-07-22 12:28:37.130 ,0,0,0.,4.8,0.,4.8,0.,4.8,0.,4.8
1979-07-22 12:28:41.930 ,0,0,0.,4.8,0.,4.8,0.,4.8,0.,4.8
1979-07-22 12:28:46.730 ,0,0,1.,4.8,0.,4.8,0.,4.8,0.,4.8
1979-07-22 12:28:51.530 ,0,0,1.,4.8,0.,4.8,0.,4.8,0.,4.8
1979-07-22 12:28:56.330 ,0,0,0.,4.8,0.,4.8,0.,4.8,0.,4.8
1979-07-22 12:29:01.130 ,0,0,0.,4.8,0.,4.8,0.,4.8,0.,4.8
1979-07-22 12:29:05.930 ,0,0,0.,4.8,0.,4.8,0.,4.8,0.,4.8
1979-07-22 12:29:10.730 ,0,0,0.,4.8,0.,4.8,1.,4.8,0.,4.8
1979-07-22 12:29:15.530 ,0,0,0.,4.8,0.,4.8,0.,4.8,0.,4.8
1979-07-22 12:29:20.330 ,0,0,1.,4.8,0.,4.8,0.,4.8,0.,4.8
1979-07-22 12:29:25.130 ,0,0,1.,4.8,0.,4.8,0.,4.8,0.,4.8
1979-07-22 12:29:29.930 ,0,0,0.,4.8,0.,4.8,1.,4.8,0.,4.8
1979-07-22 12:29:34.730 ,1,0,0.,4.8,0.,4.8,0.,4.8,0.,4.8
1979-07-22 12:29:39.530 ,1,0,0.,4.8,0.,4.8,0.,4.8,0.,4.8
1979-07-22 12:29:44.330 ,1,0,0.,4.8,0.,4.8,0.,4.8,0.,4.8
1979-07-22 12:29:49.130 ,1,0,0.,4.8,0.,4.8,0.,4.8,0.,4.8
1979-07-22 12:29:53.930 ,1,0,1.,4.8,0.,4.8,0.,4.8,0.,4.8
1979-07-22 12:29:58.730 ,1,0,0.,4.8,0.,4.8,0.,4.8,0.,4.8
1979-07-22 12:30:03.530 ,1,0,0.,4.8,0.,4.8,0.,4.8,0.,4.8
1979-07-22 12:30:08.330 ,1,0,0.,4.8,0.,4.8,0.,4.8,0.,4.8
1979-07-22 12:30:13.130 ,1,0,1.,4.8,0.,4.8,0.,4.8,0.,4.8
1979-07-22 12:30:17.930 ,1,0,0.,4.8,0.,4.8,0.,4.8,0.,4.8
1979-07-22 12:30:22.730 ,2,0,1.,4.8,0.,4.8,0.,4.8,0.,4.8
1979-07-22 12:30:27.530 ,2,0,1.,4.8,0.,4.8,0.,4.8,0.,4.8
1979-07-22 12:30:32.330 ,2,0,0.,4.8,0.,4.8,0.,4.8,0.,4.8
1979-07-22 12:30:37.130 ,2,0,0.,4.8,0.,4.8,0.,4.8,0.,4.8
1979-07-22 12:30:41.930 ,2,0,0.,4.8,0.,4.8,0.,4.8,0.,4.8
1979-07-22 12:30:46.730 ,2,0,0.,4.8,0.,4.8,0.,4.8,0.,4.8
1979-07-22 12:30:51.530 ,2,0,0.,4.8,0.,4.8,0.,4.8,0.,4.8
1979-07-22 12:30:56.330 ,2,0,1.,4.8,0.,4.8,0.,4.8,0.,4.8
1979-07-22 12:31:01.130 ,2,0,0.,4.8,0.,4.8,0.,4.8,0.,4.8
1979-07-22 12:31:05.930 ,2,0,0.,4.8,0.,4.8,0.,4.8,0.,4.8
1979-07-22 12:31:10.730 ,3,0,2.,4.8,0.,4.8,0.,4.8,0.,4.8
1979-07-22 12:31:15.530 ,3,0,0.,4.8,0.,4.8,0.,4.8,0.,4.8
1979-07-22 12:31:20.330 ,3,0,0.,4.8,0.,4.8,0.,4.8,0.,4.8
1979-07-22 12:31:25.130 ,3,0,0.,4.8,0.,4.8,0.,4.8,0.,4.8
1979-07-22 12:31:29.930 ,3,0,0.,4.8,0.,4.8,0.,4.8,0.,4.8
1979-07-22 12:31:34.730 ,3,0,1.,4.8,0.,4.8,0.,4.8,0.,4.8
1979-07-22 12:31:39.530 ,3,0,0.,4.8,0.,4.8,0.,4.8,0.,4.8
1979-07-22 12:31:44.330 ,3,0,0.,4.8,0.,4.8,0.,4.8,0.,4.8
1979-07-22 12:31:49.130 ,3,0,1.,4.8,0.,4.8,0.,4.8,0.,4.8
1979-07-22 12:31:53.930 ,3,0,2.,4.8,0.,4.8,0.,4.8,0.,4.8
1979-07-22 12:31:58.730 ,4,0,1.,4.8,0.,4.8,0.,4.8,0.,4.8
1979-07-22 12:32:03.530 ,4,0,0.,4.8,0.,4.8,0.,4.8,0.,4.8
1979-07-22 12:32:08.330 ,4,0,0.,4.8,0.,4.8,0.,4.8,1.,4.8
1979-07-22 12:32:13.130 ,4,0,0.,4.8,0.,4.8,0.,4.8,0.,4.8
1979-07-22 12:32:17.930 ,4,0,1.,4.8,0.,4.8,0.,4.8,0.,4.8
1979-07-22 12:32:22.730 ,4,0,0.,4.8,0.,4.8,0.,4.8,0.,4.8
1979-07-22 12:32:27.530 ,4,0,0.,4.8,0.,4.8,0.,4.8,0.,4.8
1979-07-22 12:32:32.330 ,4,0,0.,4.8,0.,4.8,0.,4.8,0.,4.8
1979-07-22 12:32:37.130 ,4,0,0.,4.8,0.,4.8,0.,4.8,0.,4.8
1979-07-22 12:32:41.930 ,4,0,0.,4.8,0.,4.8,0.,4.8,0.,4.8
1979-07-22 12:32:46.730 ,5,0,1.,4.8,0.,4.8,0.,4.8,0.,4.8
1979-07-22 12:32:51.530 ,5,0,0.,4.8,0.,4.8,0.,4.8,0.,4.8
1979-07-22 12:32:56.330 ,5,0,1.,4.8,0.,4.8,1.,4.8,0.,4.8
1979-07-22 12:33:01.130 ,5,0,0.,4.8,0.,4.8,0.,4.8,0.,4.8
1979-07-22 12:33:05.930 ,5,0,0.,4.8,0.,4.8,0.,4.8,0.,4.8
1979-07-22 12:33:10.730 ,5,0,0.,4.8,0.,4.8,0.,4.8,0.,4.8
1979-07-22 12:33:15.530 ,5,0,0.,4.8,0.,4.8,0.,4.8,0.,4.8
1979-07-22 12:33:20.330 ,5,0,0.,4.8,0.,4.8,0.,4.8,0.,4.8
1979-07-22 12:33:25.130 ,5,0,1.,4.8,0.,4.8,0.,4.8,0.,4.8
1979-07-22 12:33:29.930 ,5,0,3.,4.8,0.,4.8,1.,4.8,0.,4.8
1979-07-22 12:33:34.730 ,6,0,0.,4.8,0.,4.8,0.,4.8,0.,4.8
1979-07-22 12:33:39.530 ,6,0,1.,4.8,0.,4.8,0.,4.8,0.,4.8